[[{"header":{"parameterUnit":"m.s-1","parameterCategory":1,"la1":30.2991,"la2":30.254,"lo1":-89.0895,"lo2":-89.0444,"dy":0.0017,"dx":0.0017,"nx":28,"ny":28,"refTime":"2023-09-21T21:00:00:Z","depth":0,"parameterNumber":2,"parameterNumberName":"U-component_of_WINDS"},"data":[0,0,0,0,0,0,0,0,0,0,0,0,0,0,0,0,0,0,0,0,0,0,0,0,0,0,0,0,0,0,0,0,0,0,0,0,0,0,0,0,0,0,0,0,0,0,0,0,0,0,0,0,0,0,0,0,0,0,-2.2784,-2.2783,0,-2.2734,-2.2733,-2.2733,-2.259,-2.2587,-2.2584,-2.2581,-2.2534,-2.2535,-2.2537,0,0,0,0,0,0,0,0,0,0,0,0,0,-2.2759,-2.276,-2.2784,-2.2783,-2.2782,-2.2734,-2.2733,-2.2732,-2.2591,-2.2587,-2.2583,-2.258,-2.2533,-2.2535,-2.2537,0,0,0,0,0,0,0,0,0,0,0,0,0,-2.2746,-2.2761,-2.2784,-2.2706,-2.2698,-2.2734,-2.2733,-2.2732,-2.2592,-2.2587,-2.2582,-2.2578,-2.2533,-2.2535,-2.2537,-2.2646,0,0,-2.2545,-2.2546,0,0,0,0,0,0,0,0,-2.2747,-2.2747,-2.2718,-2.2711,-2.2703,-2.2663,-2.2707,-2.2703,-2.2593,-2.2632,-2.2581,-2.2576,-2.2581,-2.2579,-2.258,-2.2644,-2.2641,-2.2545,-2.2547,-2.2548,-2.2548,0,0,0,0,0,0,0,-2.2748,-2.2748,-2.2764,-2.2718,-2.2709,-2.2674,-2.2667,-2.2706,-2.2634,-2.2629,-2.2618,-2.2614,-2.2576,-2.2578,-2.2578,-2.2641,-2.2545,-2.2547,-2.2549,-2.255,-2.279,-2.2795,0,0,0,0,0,0,-2.2759,-2.275,-2.2765,-2.2762,-2.2714,-2.2678,-2.2671,-2.2681,-2.2633,-2.2621,-2.2618,-2.2607,-2.2576,-2.2575,-2.2576,-2.2699,-2.2548,-2.255,-2.2551,-2.2785,-2.2791,-2.2796,0,0,0,0,0,0,-2.2759,-2.2762,-2.2767,-2.2753,-2.2751,-2.2684,-2.2697,-2.2682,-2.2684,-2.2625,-2.2611,-2.2633,-2.2573,-2.2572,-2.2629,-2.2695,-2.2551,-2.2553,-2.2779,-2.2787,-2.2794,-2.2947,0,0,0,0,0,0,-2.2759,-2.2763,-2.2803,-2.2755,-2.2753,-2.2821,-2.2701,-2.2685,-2.2688,-2.2674,-2.2635,-2.2625,-2.2569,-2.2626,-2.2631,-2.2696,-2.2555,-2.2773,-2.2783,-2.2791,-2.2935,-2.2958,-2.2978,0,0,0,0,0,-2.2759,-2.2849,-2.2806,-2.2808,-2.2801,-2.2825,-2.2824,-2.2757,-2.2694,-2.2734,-2.2696,-2.2626,-2.2687,-2.2633,-2.2638,-2.2704,-2.2768,-2.278,-2.2791,-2.2926,-2.2954,-2.2978,0,0,0,0,0,0,-2.2908,-2.2841,-2.2793,-2.287,-2.2854,-2.2801,-2.285,-2.2789,-2.2792,-2.2779,-2.2696,-2.2689,-2.2757,-2.2736,-2.2677,-2.2806,-2.2716,-2.2729,-2.2818,-2.2844,-2.2865,-2.2868,-2.2557,0,0,0,0,0,-2.2949,-2.2974,-2.2915,-2.2989,-2.2983,-2.2918,-2.2926,-2.2876,-2.2857,-2.285,-2.2816,-2.2801,-2.2816,-2.2829,-2.284,-2.2931,-2.2921,-2.2979,-2.3001,-2.3019,-2.3031,-2.3077,-2.3103,-2.2833,-2.2832,-2.2832,0,0,-2.3036,-2.3003,-2.3023,-2.3018,-2.2999,-2.3027,-2.2914,-2.2948,-2.2968,-2.2855,-2.2906,-2.2881,-2.2859,-2.2934,-2.2965,-2.2918,-2.3103,-2.3033,-2.3047,-2.305,-2.3091,-2.3117,-2.314,-2.284,-2.2839,-2.2837,0,0,-2.3208,-2.3185,-2.3244,-2.3228,-2.3201,-2.3157,-2.3172,-2.3128,-2.3106,-2.3155,-2.3071,-2.3095,-2.3124,-2.3111,-2.3109,-2.3275,-2.3211,-2.3282,-2.3393,-2.344,-2.3461,-2.3479,-2.3539,-2.3561,-2.3294,-2.3294,-2.3294,0,-2.332,-2.3357,-2.3282,-2.3321,-2.3321,-2.3219,-2.3278,-2.3267,-2.3246,-2.3249,-2.3197,-2.323,-2.3209,-2.3279,-2.3319,-2.3321,-2.3335,-2.3286,-2.3464,-2.3481,-2.3498,-2.3553,-2.3576,-2.3303,-2.3302,-2.3301,-2.33,0,-2.3495,-2.3523,-2.3573,-2.3554,-2.356,-2.3609,-2.3542,-2.3557,-2.3507,-2.3469,-2.352,-2.349,-2.3493,-2.3506,-2.3458,-2.357,-2.3542,-2.3478,-2.3386,-2.3533,-2.3584,-2.3605,-2.3315,-2.3312,-2.3309,-2.3307,0,0,-2.3761,-2.3698,-2.3718,-2.3708,-2.3671,-2.3691,-2.3736,-2.3738,-2.3752,-2.3741,-2.3777,-2.3804,-2.3744,-2.3742,-2.3691,-2.3731,-2.3865,-2.3662,-2.366,-2.3701,-2.3987,-2.4036,-2.4062,-2.3822,-2.3826,-2.3829,-2.3989,0,-2.3923,-2.3995,-2.3928,-2.4013,-2.4038,-2.394,-2.3979,-2.3962,-2.3927,-2.3944,-2.3906,-2.3926,-2.3846,-2.3843,-2.3879,-2.3842,-2.3922,-2.3829,-2.3856,-2.3858,-2.3865,-2.4088,-2.414,-2.4292,-2.4009,-2.4012,-2.4014,0,-2.4122,-2.4119,-2.4206,-2.4163,-2.417,-2.4207,-2.4202,-2.4219,-2.4197,-2.4169,-2.4166,-2.4103,-2.4145,-2.4055,-2.4112,-2.405,-2.4057,-2.404,-2.4044,-2.4045,-2.3946,-2.4095,-2.4339,-2.4363,-2.4045,-2.4043,-2.4041,0,-2.4307,-2.4325,-2.4379,-2.4373,-2.4324,-2.4351,-2.4332,-2.4305,-2.431,-2.4307,-2.431,-2.4313,-2.4314,-2.4318,-2.4258,-2.4198,-2.4323,-2.4227,-2.4301,-2.4303,-2.4333,-2.4332,-2.4582,-2.4337,-2.4337,-2.4336,-2.4336,0,-2.4496,-2.4553,-2.4461,-2.4495,-2.4556,-2.4479,-2.4542,-2.4513,-2.449,-2.4517,-2.4434,-2.4461,-2.4379,-2.4399,-2.4352,-2.4406,-2.4408,-2.4387,-2.4374,-2.4395,-2.4398,-2.4399,-2.4387,-2.4342,-2.4341,-2.434,-2.4339,0,-2.4713,-2.4654,-2.4706,-2.4654,-2.4643,-2.4691,-2.4647,-2.4676,-2.4635,-2.4671,-2.4674,-2.4612,-2.463,-2.457,-2.4579,-2.4547,-2.4627,-2.4596,-2.4634,-2.4625,-2.4703,-2.4696,-2.4963,-2.4994,-2.4729,-2.4732,-2.4734,0,-2.4838,-2.4879,-2.4831,-2.4842,-2.4827,-2.4847,-2.4851,-2.4777,-2.4785,-2.4763,-2.4795,-2.4806,-2.481,-2.4844,-2.48,-2.4806,-2.4776,-2.4868,-2.4776,-2.4796,-2.4777,-2.4776,-2.478,-2.4888,-2.4891,-2.4894,-2.4896,0,-2.5065,-2.5033,-2.5041,-2.504,-2.5047,-2.5043,-2.5033,-2.5047,-2.4967,-2.4981,-2.4997,-2.5001,-2.5009,-2.5021,-2.5018,-2.4999,-2.4936,-2.4925,-2.4943,-2.4965,-2.4985,-2.4975,-2.4687,-2.492,-2.4917,-2.4916,-2.4914,-2.4913,-2.524,-2.5272,-2.5243,-2.5255,-2.5239,-2.5232,-2.5256,-2.5218,-2.523,-2.523,-2.5186,-2.5212,-2.5188,-2.5177,-2.5165,-2.5184,-2.5141,-2.5167,-2.5173,-2.5181,-2.5194,-2.4981,-2.5184,-2.5183,-2.5182,-2.5181,-2.5181,0,-2.5463,-2.5439,-2.5451,-2.5438,-2.5448,-2.5385,-2.5371,-2.5384,-2.5407,-2.5389,-2.5395,-2.5414,-2.5426,-2.5382,-2.5387,-2.5412,-2.5383,-2.5416,-2.5413,-2.541,-2.5232,-2.5217,-2.5439,-2.5439,-2.5439,-2.5439,-2.5439,-2.5439,-2.558,-2.5631,-2.5596,-2.5638,-2.5614,-2.5637,-2.5634,-2.5627,-2.5613,-2.5637,-2.5646,-2.5616,-2.5589,-2.5591,-2.5599,-2.5586,-2.5592,-2.5636,-2.5613,-2.5448,-2.5423,-2.5399,-2.5384,-2.5638,-2.5638,-2.5789,-2.5791,-2.5792]},{"header":{"parameterUnit":"m.s-1","parameterCategory":1,"la1":30.2991,"la2":30.254,"lo1":-89.0895,"lo2":-89.0444,"dy":0.0017,"dx":0.0017,"nx":28,"ny":28,"refTime":"2023-09-21T21:00:00:Z","depth":0,"parameterNumber":3,"parameterNumberName":"V-component_of_WINDS"},"data":[0,0,0,0,0,0,0,0,0,0,0,0,0,0,0,0,0,0,0,0,0,0,0,0,0,0,0,0,0,0,0,0,0,0,0,0,0,0,0,0,0,0,0,0,0,0,0,0,0,0,0,0,0,0,0,0,0,0,-1.1746,-1.1748,0,-1.1923,-1.1925,-1.1927,-1.1992,-1.1991,-1.1991,-1.199,-1.2172,-1.2177,-1.2182,0,0,0,0,0,0,0,0,0,0,0,0,0,-1.1463,-1.1468,-1.1746,-1.1748,-1.175,-1.1923,-1.1925,-1.1928,-1.1992,-1.1991,-1.1991,-1.199,-1.217,-1.2176,-1.2183,0,0,0,0,0,0,0,0,0,0,0,0,0,-1.1607,-1.1469,-1.1746,-1.1803,-1.181,-1.1923,-1.1926,-1.1929,-1.1992,-1.1991,-1.199,-1.199,-1.2168,-1.2176,-1.2184,-1.2252,0,0,-1.2208,-1.2212,0,0,0,0,0,0,0,0,-1.1599,-1.1618,-1.1793,-1.18,-1.1807,-1.1935,-1.1892,-1.2037,-1.1992,-1.1923,-1.199,-1.1989,-1.2094,-1.2108,-1.2143,-1.226,-1.2268,-1.2209,-1.2214,-1.2217,-1.222,0,0,0,0,0,0,0,-1.1589,-1.161,-1.1816,-1.1795,-1.1804,-1.182,-1.184,-1.192,-1.2011,-1.1929,-1.1934,-1.1954,-1.2097,-1.2135,-1.2148,-1.2271,-1.2209,-1.2216,-1.2221,-1.2224,-1.2452,-1.2453,0,0,0,0,0,0,-1.1569,-1.1602,-1.1811,-1.1822,-1.1699,-1.1826,-1.1848,-1.1895,-1.2011,-1.2027,-1.1955,-1.1957,-1.2122,-1.2138,-1.2154,-1.2241,-1.2217,-1.2225,-1.223,-1.245,-1.2452,-1.2453,0,0,0,0,0,0,-1.1563,-1.1587,-1.1803,-1.1713,-1.1742,-1.1832,-1.1884,-1.1899,-1.1936,-1.203,-1.2047,-1.1976,-1.2121,-1.2143,-1.2227,-1.2248,-1.2229,-1.2236,-1.2449,-1.2451,-1.2453,-1.2415,0,0,0,0,0,0,-1.1555,-1.1585,-1.1612,-1.1713,-1.1746,-1.1873,-1.1885,-1.1903,-1.195,-1.1954,-1.2055,-1.207,-1.2122,-1.2214,-1.2235,-1.2259,-1.2242,-1.2448,-1.245,-1.2452,-1.2415,-1.2416,-1.2416,0,0,0,0,0,-1.1544,-1.1594,-1.1613,-1.1638,-1.1782,-1.1874,-1.1893,-1.1952,-1.1952,-1.1979,-1.2039,-1.2067,-1.2242,-1.2222,-1.2246,-1.2273,-1.2446,-1.2449,-1.2452,-1.2415,-1.2416,-1.2416,0,0,0,0,0,0,-1.1494,-1.1609,-1.163,-1.1715,-1.1784,-1.1885,-1.1922,-1.1951,-1.2022,-1.2023,-1.2093,-1.2115,-1.2193,-1.2241,-1.2217,-1.2344,-1.2346,-1.2354,-1.231,-1.2312,-1.2312,-1.2299,-1.2249,0,0,0,0,0,-1.1492,-1.1557,-1.1655,-1.172,-1.1753,-1.1831,-1.1874,-1.1913,-1.1987,-1.2017,-1.2083,-1.2155,-1.2226,-1.2271,-1.2342,-1.2422,-1.2445,-1.2452,-1.2453,-1.2453,-1.2459,-1.2504,-1.2508,-1.2462,-1.2462,-1.2462,0,0,-1.149,-1.1561,-1.1598,-1.1711,-1.177,-1.1835,-1.1856,-1.1925,-1.1974,-1.2028,-1.2111,-1.2162,-1.2246,-1.2328,-1.2367,-1.2371,-1.2476,-1.2456,-1.2455,-1.2462,-1.2507,-1.2511,-1.2515,-1.2464,-1.2463,-1.2463,0,0,-1.152,-1.158,-1.1641,-1.1698,-1.1786,-1.1838,-1.1852,-1.1948,-1.1984,-1.2069,-1.211,-1.217,-1.2291,-1.2349,-1.2394,-1.2444,-1.2473,-1.2465,-1.2468,-1.2512,-1.2515,-1.2519,-1.2537,-1.2542,-1.2471,-1.2471,-1.2471,0,-1.1506,-1.1607,-1.1668,-1.1735,-1.1783,-1.1834,-1.1896,-1.1949,-1.2055,-1.2087,-1.2089,-1.2242,-1.2302,-1.2398,-1.241,-1.2446,-1.2464,-1.2455,-1.251,-1.2514,-1.2518,-1.2536,-1.2543,-1.2469,-1.2469,-1.247,-1.247,0,-1.1586,-1.1655,-1.1693,-1.1794,-1.1847,-1.1911,-1.1981,-1.2027,-1.2061,-1.2112,-1.2197,-1.2271,-1.2357,-1.2382,-1.2417,-1.2483,-1.2483,-1.2496,-1.25,-1.252,-1.2538,-1.2545,-1.2467,-1.2468,-1.2468,-1.2468,0,0,-1.1589,-1.1722,-1.1736,-1.1782,-1.1882,-1.1936,-1.2002,-1.2086,-1.2124,-1.2195,-1.2252,-1.2352,-1.2366,-1.2417,-1.2458,-1.2496,-1.2531,-1.2506,-1.2509,-1.2507,-1.2608,-1.2597,-1.2604,-1.255,-1.2551,-1.2552,-1.2601,0,-1.1632,-1.1752,-1.1808,-1.1903,-1.1968,-1.2016,-1.2073,-1.2141,-1.219,-1.2251,-1.2305,-1.2376,-1.2388,-1.2419,-1.2459,-1.2518,-1.2552,-1.2515,-1.2603,-1.2605,-1.2581,-1.2613,-1.2602,-1.2645,-1.2608,-1.2609,-1.261,0,-1.1699,-1.1769,-1.187,-1.1962,-1.1991,-1.2041,-1.2122,-1.2181,-1.2258,-1.2291,-1.2347,-1.2387,-1.2457,-1.2455,-1.2553,-1.2526,-1.2566,-1.26,-1.2603,-1.2614,-1.2609,-1.2625,-1.266,-1.2666,-1.2622,-1.2621,-1.262,0,-1.1691,-1.1811,-1.1887,-1.1925,-1.2034,-1.2068,-1.2115,-1.2191,-1.2238,-1.2308,-1.2339,-1.2417,-1.246,-1.2519,-1.2578,-1.2571,-1.267,-1.2673,-1.27,-1.2698,-1.2719,-1.2717,-1.276,-1.2743,-1.2743,-1.2743,-1.2743,0,-1.1733,-1.1793,-1.1885,-1.1931,-1.2,-1.2063,-1.2129,-1.218,-1.2247,-1.2304,-1.2351,-1.2403,-1.2478,-1.254,-1.2587,-1.266,-1.2679,-1.2708,-1.272,-1.2704,-1.27,-1.2731,-1.2729,-1.2745,-1.2744,-1.2744,-1.2744,0,-1.1736,-1.18,-1.1886,-1.1982,-1.2007,-1.2053,-1.2135,-1.2182,-1.2232,-1.2304,-1.2325,-1.2404,-1.248,-1.2544,-1.2644,-1.2675,-1.2751,-1.2765,-1.2725,-1.2731,-1.2754,-1.2751,-1.2819,-1.2831,-1.2805,-1.2805,-1.2805,0,-1.1759,-1.1806,-1.1906,-1.1948,-1.1994,-1.206,-1.2108,-1.2172,-1.2219,-1.231,-1.2346,-1.2424,-1.2491,-1.2608,-1.2675,-1.2751,-1.2767,-1.2786,-1.2779,-1.2762,-1.2768,-1.2764,-1.2769,-1.2786,-1.2786,-1.2786,-1.2786,0,-1.1792,-1.1821,-1.1888,-1.1966,-1.2021,-1.2086,-1.2151,-1.2182,-1.2259,-1.231,-1.2387,-1.2438,-1.2539,-1.2616,-1.2699,-1.2748,-1.2779,-1.2787,-1.2798,-1.2782,-1.2757,-1.2771,-1.2725,-1.2786,-1.2786,-1.2786,-1.2786,-1.2786,-1.1806,-1.185,-1.1927,-1.2,-1.2056,-1.2116,-1.2164,-1.2221,-1.2286,-1.2373,-1.2407,-1.2486,-1.2561,-1.2676,-1.2724,-1.2786,-1.2791,-1.2806,-1.281,-1.2812,-1.281,-1.2746,-1.2801,-1.2802,-1.2802,-1.2802,-1.2802,0,-1.1842,-1.1894,-1.196,-1.205,-1.2107,-1.2131,-1.2205,-1.2251,-1.2319,-1.2387,-1.2451,-1.2539,-1.2614,-1.2686,-1.2764,-1.28,-1.2817,-1.2819,-1.2817,-1.2827,-1.2801,-1.2784,-1.2804,-1.2804,-1.2804,-1.2804,-1.2804,-1.2804,-1.1867,-1.1943,-1.1981,-1.2084,-1.2135,-1.2213,-1.2253,-1.2308,-1.2362,-1.2458,-1.2521,-1.2567,-1.2636,-1.272,-1.2789,-1.2809,-1.2835,-1.2833,-1.2856,-1.283,-1.2829,-1.2828,-1.2813,-1.2839,-1.2839,-1.2878,-1.2878,-1.2879]}]]